[[{"header":{"parameterUnit":"m.s-1","parameterCategory":1,"la1":30.2991,"la2":30.254,"lo1":-89.0895,"lo2":-89.0444,"dx":0.0017,"dy":0.0017,"nx":28,"ny":28,"refTime":"2022-12-23T15:00:00:Z","depth":0,"parameterNumber":2,"parameterNumberName":"U-component_of_WINDS"},"data":[0,0,0,0,0,0,0,0,0,0,0,0,0,0,0,0,0,0,0,0,0,0,0,0,0,0,0,0,0,0,0,0,0,0,0,0,0,0,0,0,0,0,0,0,0,0,0,0,0,0,0,0,0,0,0,0,0,0,-0.4383,-0.4383,0,-0.4439,-0.444,-0.444,-0.4412,-0.441,-0.4409,-0.4407,-0.4468,-0.4471,-0.4474,0,0,0,0,0,0,0,0,0,0,0,0,0,-0.4253,-0.4255,-0.4383,-0.4383,-0.4384,-0.4439,-0.444,-0.4441,-0.4412,-0.441,-0.4408,-0.4407,-0.4467,-0.4471,-0.4474,0,0,0,0,0,0,0,0,0,0,0,0,0,-0.4309,-0.4256,-0.4383,-0.4376,-0.4376,-0.4439,-0.444,-0.4441,-0.4412,-0.441,-0.4408,-0.4406,-0.4466,-0.4471,-0.4475,-0.4548,0,0,-0.4489,-0.4491,0,0,0,0,0,0,0,0,-0.4306,-0.4314,-0.4377,-0.4377,-0.4377,-0.4416,-0.4416,-0.4477,-0.4413,-0.4399,-0.4407,-0.4405,-0.4453,-0.4458,-0.4474,-0.4551,-0.4553,-0.4489,-0.4492,-0.4494,-0.4495,0,0,0,0,0,0,0,-0.4302,-0.4312,-0.4405,-0.4378,-0.4378,-0.4372,-0.4377,-0.4428,-0.4438,-0.44,-0.4398,-0.4405,-0.4453,-0.447,-0.4475,-0.4554,-0.4489,-0.4493,-0.4496,-0.4498,-0.4693,-0.4696,0,0,0,0,0,0,-0.4298,-0.4308,-0.4403,-0.4407,-0.4335,-0.4376,-0.4382,-0.4406,-0.4437,-0.444,-0.4407,-0.4403,-0.4463,-0.447,-0.4477,-0.4565,-0.4494,-0.4498,-0.4501,-0.4691,-0.4694,-0.4697,0,0,0,0,0,0,-0.4296,-0.4307,-0.4401,-0.4357,-0.4369,-0.438,-0.4407,-0.4408,-0.4425,-0.4442,-0.4444,-0.4422,-0.4462,-0.4471,-0.453,-0.4567,-0.45,-0.4504,-0.4688,-0.4692,-0.4695,-0.4742,0,0,0,0,0,0,-0.4292,-0.4306,-0.4334,-0.4358,-0.4371,-0.4453,-0.441,-0.4411,-0.4433,-0.4429,-0.4457,-0.446,-0.4461,-0.4524,-0.4535,-0.4572,-0.4508,-0.4685,-0.469,-0.4694,-0.4737,-0.4746,-0.4755,0,0,0,0,0,-0.4287,-0.4345,-0.4335,-0.4347,-0.4405,-0.4455,-0.4462,-0.4461,-0.4436,-0.4464,-0.4475,-0.4459,-0.4561,-0.453,-0.4542,-0.4581,-0.4683,-0.4688,-0.4694,-0.4733,-0.4745,-0.4754,0,0,0,0,0,0,-0.4326,-0.4348,-0.4337,-0.4404,-0.4428,-0.445,-0.4485,-0.4473,-0.4506,-0.4501,-0.4498,-0.4505,-0.4567,-0.458,-0.4545,-0.4654,-0.4618,-0.4626,-0.4643,-0.4655,-0.4663,-0.466,-0.4511,0,0,0,0,0,-0.4342,-0.4379,-0.4397,-0.4454,-0.4466,-0.4474,-0.4495,-0.4492,-0.4517,-0.4527,-0.4542,-0.4568,-0.4605,-0.463,-0.4666,-0.4738,-0.4744,-0.4771,-0.4779,-0.4787,-0.4795,-0.4835,-0.4847,-0.4715,-0.4715,-0.4715,0,0,-0.4376,-0.4393,-0.4417,-0.4462,-0.448,-0.452,-0.4483,-0.4526,-0.4556,-0.4534,-0.4591,-0.4603,-0.4631,-0.4697,-0.4727,-0.471,-0.4832,-0.4794,-0.4799,-0.4804,-0.4842,-0.4854,-0.4865,-0.4719,-0.4718,-0.4718,0,0,-0.4459,-0.4474,-0.4524,-0.4543,-0.457,-0.4574,-0.4586,-0.4609,-0.4616,-0.4673,-0.4657,-0.4693,-0.4757,-0.4778,-0.4797,-0.4887,-0.4874,-0.4898,-0.4946,-0.4985,-0.4995,-0.5004,-0.5038,-0.5049,-0.4905,-0.4906,-0.4906,0,-0.4498,-0.4557,-0.4552,-0.4597,-0.4618,-0.4598,-0.4649,-0.4667,-0.4705,-0.472,-0.4699,-0.478,-0.4797,-0.4869,-0.489,-0.4906,-0.492,-0.4896,-0.4994,-0.5003,-0.5011,-0.5043,-0.5056,-0.4909,-0.4908,-0.4908,-0.4908,0,-0.4605,-0.4646,-0.4683,-0.4719,-0.4744,-0.4791,-0.4794,-0.482,-0.4814,-0.4821,-0.4879,-0.4899,-0.4938,-0.4954,-0.4949,-0.5025,-0.5014,-0.4993,-0.4958,-0.5027,-0.5057,-0.5069,-0.4913,-0.4912,-0.4911,-0.491,0,0,-0.4716,-0.4747,-0.4761,-0.4777,-0.4805,-0.4837,-0.4884,-0.4921,-0.4944,-0.497,-0.501,-0.5064,-0.5046,-0.5067,-0.5064,-0.5098,-0.5169,-0.5074,-0.5074,-0.5092,-0.5255,-0.5272,-0.5286,-0.5159,-0.5162,-0.5163,-0.5253,0,-0.4802,-0.4884,-0.488,-0.4957,-0.4995,-0.4975,-0.5016,-0.5038,-0.5045,-0.5079,-0.5087,-0.5126,-0.5097,-0.5111,-0.5143,-0.5153,-0.5202,-0.5147,-0.5199,-0.5201,-0.5195,-0.5301,-0.5319,-0.5403,-0.5265,-0.5267,-0.5268,0,-0.4915,-0.4944,-0.5024,-0.5046,-0.5061,-0.5098,-0.5132,-0.5164,-0.5189,-0.5191,-0.5215,-0.5206,-0.5254,-0.5215,-0.5282,-0.5245,-0.5265,-0.5273,-0.5276,-0.5283,-0.524,-0.5313,-0.543,-0.5443,-0.5286,-0.5285,-0.5284,0,-0.499,-0.5049,-0.5105,-0.5119,-0.5145,-0.5172,-0.5184,-0.5205,-0.5228,-0.5258,-0.5273,-0.5307,-0.5327,-0.5355,-0.5356,-0.5327,-0.5424,-0.5385,-0.5429,-0.5429,-0.5453,-0.5452,-0.5577,-0.5462,-0.5462,-0.5462,-0.5462,0,-0.5088,-0.5139,-0.5139,-0.5174,-0.523,-0.5224,-0.528,-0.529,-0.5309,-0.5346,-0.533,-0.5365,-0.5363,-0.5399,-0.54,-0.5456,-0.5464,-0.5469,-0.5469,-0.5472,-0.5471,-0.5487,-0.5482,-0.5465,-0.5464,-0.5464,-0.5463,0,-0.5183,-0.5185,-0.5245,-0.5264,-0.527,-0.5311,-0.5328,-0.5361,-0.5365,-0.5412,-0.5423,-0.5431,-0.5472,-0.5474,-0.5522,-0.5523,-0.5591,-0.5584,-0.5583,-0.5583,-0.5627,-0.5624,-0.5769,-0.5788,-0.5659,-0.566,-0.5661,0,-0.5247,-0.5285,-0.5308,-0.5331,-0.5345,-0.5382,-0.5405,-0.54,-0.5425,-0.5455,-0.5485,-0.5524,-0.5555,-0.5621,-0.5632,-0.5668,-0.5663,-0.5711,-0.5669,-0.567,-0.5666,-0.5665,-0.5669,-0.5721,-0.5722,-0.5723,-0.5724,0,-0.5361,-0.536,-0.5392,-0.5426,-0.5453,-0.5479,-0.5503,-0.5523,-0.5522,-0.555,-0.5591,-0.5615,-0.5663,-0.5703,-0.5738,-0.5751,-0.5739,-0.5737,-0.5749,-0.5754,-0.5753,-0.5756,-0.5608,-0.5734,-0.5733,-0.5733,-0.5732,-0.5732,-0.5444,-0.5477,-0.5498,-0.5535,-0.5553,-0.5576,-0.5608,-0.5616,-0.565,-0.5688,-0.5683,-0.5729,-0.5752,-0.5798,-0.5813,-0.585,-0.5834,-0.5851,-0.5856,-0.5862,-0.5867,-0.5744,-0.5856,-0.5856,-0.5855,-0.5855,-0.5855,0,-0.5558,-0.5571,-0.5604,-0.5639,-0.5668,-0.565,-0.5676,-0.5702,-0.5743,-0.5764,-0.5795,-0.5843,-0.588,-0.5893,-0.593,-0.5957,-0.5952,-0.5967,-0.5966,-0.597,-0.5878,-0.5865,-0.5971,-0.5971,-0.5971,-0.5971,-0.5971,-0.597,-0.5622,-0.5677,-0.5678,-0.5742,-0.5754,-0.5799,-0.5815,-0.5836,-0.5854,-0.5907,-0.5938,-0.5945,-0.5964,-0.6002,-0.6036,-0.6039,-0.6054,-0.6072,-0.6073,-0.5988,-0.5976,-0.5965,-0.5953,-0.6075,-0.6075,-0.6161,-0.6162,-0.6163]},{"header":{"parameterUnit":"m.s-1","parameterCategory":1,"la1":30.2991,"la2":30.254,"lo1":-89.0895,"lo2":-89.0444,"dx":0.0017,"dy":0.0017,"nx":28,"ny":28,"refTime":"2022-12-23T15:00:00:Z","depth":0,"parameterNumber":3,"parameterNumberName":"V-component_of_WINDS"},"data":[0,0,0,0,0,0,0,0,0,0,0,0,0,0,0,0,0,0,0,0,0,0,0,0,0,0,0,0,0,0,0,0,0,0,0,0,0,0,0,0,0,0,0,0,0,0,0,0,0,0,0,0,0,0,0,0,0,0,-4.7329,-4.733,0,-4.7414,-4.7415,-4.7416,-4.7359,-4.7357,-4.7354,-4.7352,-4.7434,-4.7438,-4.7443,0,0,0,0,0,0,0,0,0,0,0,0,0,-4.7115,-4.7119,-4.7329,-4.733,-4.7332,-4.7414,-4.7415,-4.7416,-4.736,-4.7356,-4.7353,-4.735,-4.7432,-4.7438,-4.7443,0,0,0,0,0,0,0,0,0,0,0,0,0,-4.7205,-4.7121,-4.7329,-4.7313,-4.7313,-4.7414,-4.7415,-4.7416,-4.736,-4.7356,-4.7353,-4.7349,-4.7431,-4.7437,-4.7444,-4.7564,0,0,-4.7465,-4.7468,0,0,0,0,0,0,0,0,-4.72,-4.7213,-4.7315,-4.7315,-4.7314,-4.7372,-4.7369,-4.7466,-4.7361,-4.7342,-4.7351,-4.7347,-4.7416,-4.7424,-4.7448,-4.7568,-4.7571,-4.7466,-4.747,-4.7473,-4.7475,0,0,0,0,0,0,0,-4.7194,-4.7209,-4.7363,-4.7316,-4.7316,-4.7301,-4.7309,-4.7387,-4.74,-4.7343,-4.734,-4.7351,-4.7415,-4.7442,-4.745,-4.7572,-4.7465,-4.7472,-4.7476,-4.7479,-4.7795,-4.7799,0,0,0,0,0,0,-4.7189,-4.7204,-4.736,-4.7365,-4.7246,-4.7308,-4.7317,-4.7357,-4.7399,-4.7401,-4.7354,-4.7348,-4.7432,-4.7442,-4.7452,-4.7596,-4.7473,-4.7479,-4.7483,-4.7791,-4.7796,-4.78,0,0,0,0,0,0,-4.7185,-4.7204,-4.7357,-4.7284,-4.7302,-4.7316,-4.7361,-4.7361,-4.7388,-4.7407,-4.7408,-4.7379,-4.7429,-4.7443,-4.7537,-4.7598,-4.7482,-4.7489,-4.7786,-4.7792,-4.7798,-4.7885,0,0,0,0,0,0,-4.7179,-4.7203,-4.7249,-4.7285,-4.7306,-4.7441,-4.7365,-4.7366,-4.74,-4.7393,-4.743,-4.7433,-4.7427,-4.7527,-4.7544,-4.7606,-4.7494,-4.778,-4.7789,-4.7796,-4.7876,-4.7893,-4.7908,0,0,0,0,0,-4.7172,-4.7269,-4.7252,-4.7271,-4.7365,-4.7445,-4.7457,-4.745,-4.7405,-4.7452,-4.7464,-4.7432,-4.7589,-4.7537,-4.7556,-4.762,-4.7776,-4.7786,-4.7795,-4.7869,-4.789,-4.7907,0,0,0,0,0,0,-4.7238,-4.7273,-4.7255,-4.7367,-4.7404,-4.7435,-4.7494,-4.7471,-4.752,-4.7511,-4.7498,-4.7507,-4.7607,-4.7622,-4.7564,-4.7739,-4.7675,-4.7689,-4.7725,-4.7745,-4.776,-4.7755,-4.75,0,0,0,0,0,-4.7266,-4.733,-4.7356,-4.7453,-4.7472,-4.748,-4.7515,-4.7506,-4.7543,-4.7558,-4.7577,-4.7613,-4.767,-4.7708,-4.7762,-4.7878,-4.7885,-4.7931,-4.7947,-4.796,-4.7972,-4.8036,-4.8057,-4.7832,-4.7832,-4.7832,0,0,-4.7324,-4.7351,-4.7392,-4.7467,-4.7494,-4.756,-4.7493,-4.7565,-4.7613,-4.7568,-4.7659,-4.7674,-4.7713,-4.782,-4.7867,-4.7836,-4.8036,-4.7972,-4.7982,-4.7988,-4.8048,-4.8069,-4.8088,-4.7839,-4.7837,-4.7836,0,0,-4.7464,-4.7491,-4.7575,-4.7604,-4.7647,-4.7651,-4.7671,-4.7707,-4.7716,-4.7807,-4.7775,-4.7831,-4.793,-4.796,-4.7988,-4.8139,-4.8111,-4.8156,-4.8238,-4.83,-4.8318,-4.8334,-4.8389,-4.8409,-4.8168,-4.8169,-4.8169,0,-4.753,-4.7629,-4.762,-4.7695,-4.7729,-4.7692,-4.7777,-4.7805,-4.7863,-4.7887,-4.7851,-4.7975,-4.7998,-4.8112,-4.8149,-4.8172,-4.8195,-4.8153,-4.8317,-4.8332,-4.8347,-4.8399,-4.8419,-4.8174,-4.8173,-4.8173,-4.8172,0,-4.7709,-4.7777,-4.784,-4.7899,-4.7939,-4.8018,-4.8021,-4.8063,-4.805,-4.8058,-4.8152,-4.8179,-4.8238,-4.8264,-4.8252,-4.8376,-4.8355,-4.8318,-4.8254,-4.8374,-4.8422,-4.8442,-4.8182,-4.818,-4.8178,-4.8177,0,0,-4.7893,-4.7947,-4.797,-4.7997,-4.8042,-4.8094,-4.8171,-4.8231,-4.8267,-4.8308,-4.8372,-4.8457,-4.8424,-4.8455,-4.8446,-4.85,-4.862,-4.8457,-4.8457,-4.8487,-4.8759,-4.8787,-4.8811,-4.8601,-4.8605,-4.8608,-4.8756,0,-4.8036,-4.8173,-4.8168,-4.8295,-4.8358,-4.8325,-4.8392,-4.8426,-4.8436,-4.849,-4.8499,-4.856,-4.8511,-4.853,-4.8582,-4.8594,-4.8674,-4.8583,-4.8661,-4.8663,-4.8654,-4.8836,-4.8866,-4.9005,-4.8775,-4.8778,-4.878,0,-4.8222,-4.8271,-4.8406,-4.8442,-4.8468,-4.8529,-4.8584,-4.8636,-4.8674,-4.8676,-4.8713,-4.8695,-4.8772,-4.8705,-4.8811,-4.875,-4.878,-4.8791,-4.8796,-4.8804,-4.873,-4.885,-4.9048,-4.907,-4.881,-4.8808,-4.8805,0,-4.8345,-4.8444,-4.8538,-4.8561,-4.8606,-4.865,-4.867,-4.8704,-4.874,-4.8787,-4.881,-4.8865,-4.8895,-4.8937,-4.8934,-4.8885,-4.9042,-4.8974,-4.9046,-4.9046,-4.9081,-4.9079,-4.9289,-4.9099,-4.9099,-4.9099,-4.9098,0,-4.8506,-4.859,-4.8594,-4.8652,-4.8744,-4.8736,-4.8828,-4.8843,-4.8874,-4.8933,-4.8906,-4.8962,-4.8954,-4.9009,-4.9007,-4.9096,-4.9109,-4.9113,-4.9112,-4.9117,-4.9116,-4.9137,-4.9128,-4.9104,-4.9103,-4.9102,-4.9101,0,-4.8659,-4.8665,-4.8765,-4.88,-4.881,-4.8877,-4.8906,-4.896,-4.8967,-4.9043,-4.906,-4.9071,-4.9135,-4.9136,-4.9208,-4.9207,-4.9316,-4.9302,-4.9304,-4.9302,-4.9374,-4.9368,-4.9605,-4.9636,-4.9426,-4.9428,-4.9429,0,-4.8762,-4.8826,-4.8868,-4.8907,-4.8931,-4.8993,-4.903,-4.9024,-4.9064,-4.9113,-4.9161,-4.9223,-4.9273,-4.9377,-4.939,-4.9446,-4.9435,-4.9514,-4.9443,-4.9446,-4.9437,-4.9434,-4.9441,-4.9529,-4.9531,-4.9533,-4.9534,0,-4.8945,-4.8946,-4.9002,-4.906,-4.9106,-4.915,-4.9191,-4.9224,-4.9222,-4.9268,-4.9335,-4.9374,-4.9449,-4.9511,-4.9565,-4.9584,-4.956,-4.9557,-4.9576,-4.9583,-4.9581,-4.9584,-4.9343,-4.9551,-4.955,-4.9548,-4.9548,-4.9547,-4.9078,-4.9134,-4.9172,-4.9236,-4.9266,-4.9306,-4.9359,-4.9373,-4.9429,-4.9492,-4.9484,-4.9558,-4.9594,-4.9664,-4.9688,-4.9745,-4.9717,-4.9745,-4.9753,-4.976,-4.9769,-4.9571,-4.9754,-4.9754,-4.9753,-4.9753,-4.9753,0,-4.926,-4.9284,-4.9342,-4.9402,-4.9452,-4.9426,-4.947,-4.9513,-4.9579,-4.9615,-4.9665,-4.9742,-4.9802,-4.982,-4.9878,-4.992,-4.991,-4.9936,-4.9933,-4.9938,-4.979,-4.9768,-4.9943,-4.9943,-4.9943,-4.9943,-4.9943,-4.9943,-4.9362,-4.9455,-4.946,-4.9568,-4.959,-4.9665,-4.9692,-4.9728,-4.9757,-4.9844,-4.9895,-4.9907,-4.9936,-4.9996,-5.005,-5.0053,-5.0076,-5.0107,-5.0106,-4.9967,-4.9948,-4.993,-4.9909,-5.0112,-5.0112,-5.025,-5.0251,-5.0252]}]]